Regional Weather Roundup
Issued by NWS

Home | Current Version | Previous Version | Text Only | Print | Product List | Glossary Off
Versions: 1 2 3 4 5 6 7 8 9 10 11 12 13 14 15 16 17 18 19 20 21 22 23 24 25 26 27 28 29 30 31 32 33 34 35 36 37 38 39 40 41 42 43 44 45 46 47 48 49 50

000
ASUS43 KDTX 031510
RWRMI
MICHIGAN HOURLY REGIONAL WEATHER ROUNDUP
NATIONAL WEATHER SERVICE DETROIT/PONTIAC MI
1100 AM EDT TUE MAY 03 2016

NOTE: "FAIR" INDICATES FEW OR NO CLOUDS BELOW 12,000 FEET WITH NO
SIGNIFICANT WEATHER AND/OR OBSTRUCTION TO VISIBILITY.

MIZ047>049-052>055-059>063-066>070-074>076-081>083-031600-
SOUTHEAST LOWER MICHIGAN

CITY           SKY/WX    TMP DP  RH WIND       PRES   REMARKS
ALMA           SUNNY     59  38  46 SW7G16    29.91F
ANN ARBOR      SUNNY     59  39  47 NE5       29.91F
BAD AXE        SUNNY     57  31  37 SW7       29.90F
CARO           SUNNY     60  32  34 W8        29.90F
DETROIT CITY   MOSUNNY   56  39  53 NW5       29.92F
DETROIT        MOSUNNY   58  41  53 W5        29.92F
FLINT          SUNNY     61  35  37 NW7       29.91F
GROSSE ILE     MOSUNNY   57  46  67 NE5       29.90F
HILLSDALE      SUNNY     56  34  43 CALM      29.92F
HOWELL         SUNNY     58  34  40 CALM      29.91F

CITY           SKY/WX    TMP DP  RH WIND       PRES   REMARKS
JACKSON        SUNNY     58  36  43 NW6       29.92F
LAMBERTVILLE   CLOUDY    57  45  63 CALM      29.93S
LANSING        SUNNY     58  38  47 VRB6      29.93F
LAPEER         FAIR      57  32  37 N6        29.91S
MASON          SUNNY     57  39  50 W5        29.92F
MONROE         CLOUDY    56  45  68 W3        29.91F
MT. CLEMENS    PTSUNNY   55  44  66 E6        29.91S
PONTIAC        MOSUNNY   58  33  39 NW5       29.90F
PORT HOPE        N/A     58  30  34 VRB3      29.88F
PORT HURON     SUNNY     55  36  47 CALM      29.91S
TRI CITIES     SUNNY     60  34  37 SW10      29.91F
MIDLAND        FAIR      61  36  39 SW9       29.89F
TROY           SUNNY     59  31  35 SW5       29.92F
SAGINAW HB     SUNNY     59  34  38 S6        29.90F
$$
MIZ043>046-050>051-056>058-064>065-071>073-077>080-031600-
SOUTHWEST LOWER MICHIGAN

CITY           SKY/WX    TMP DP  RH WIND       PRES   REMARKS
BATTLE CREEK   SUNNY     58  38  47 W6        29.93F
BENTON HARBOR  SUNNY     56  37  49 W8        29.95F
BIG RAPIDS     SUNNY     59  29  31 W6        29.89F
COLDWATER      SUNNY     57  39  51 CALM      29.93F
FREMONT        FAIR      59  29  32 W12       29.91F
HOLLAND        SUNNY     57  35  43 W10       29.94F
GRAND RAPIDS   MOSUNNY   59  40  49 W9        29.93F
IONIA          FAIR      58  37  45 W8        29.91F
KALAMAZOO      SUNNY     58  40  51 VRB3      29.94F
LUDINGTON      SUNNY     54  37  51 SW13G20   29.90S
MARSHALL       SUNNY     59  38  46 CALM      29.92F
MOUNT PLEASANT SUNNY     61  35  37 SW6       29.89S
MUSKEGON       MOSUNNY   56  33  42 SW9       29.93F
SOUTH HAVEN    SUNNY     56  36  46 NW7       29.95S
$$
MIZ016>042-031600-
NORTHERN LOWER MICHIGAN

CITY           SKY/WX    TMP DP  RH WIND       PRES   REMARKS
ALPENA         MOSUNNY   61  33  35 SW6       29.85F
BEAVER ISLAND  MOSUNNY   52  37  56 SW13G18   29.81F
BELLAIRE       SUNNY     60  32  34 SW9       29.83F
CADILLAC       SUNNY     60  34  38 SW12      29.86S
CHARLEVOIX     SUNNY     59  34  39 SW16G24   29.84F
FRANKFORT      SUNNY     54  38  54 SW8       29.87S
GAYLORD        MOSUNNY   60  30  32 SW15      29.83F
GRAYLING       MOSUNNY   61  32  33 SW5       29.85F
HARBOR SPRINGS SUNNY     57  32  39 W3        29.83F
HOUGHTON LAKE  SUNNY     59  33  37 SW8       29.87F
MANISTEE       SUNNY     61  34  36 SW12G20   29.87F
OSCODA         SUNNY     62  36  37 SW13G18   29.86F
PELLSTON       SUNNY     61  31  32 SW14      29.81F
ROGERS CITY    SUNNY     61  31  32 W6        29.84F
TRAVERSE CITY  MOSUNNY   61  33  35 SW10G21   29.83F
$$
MIZ007>008-015-031600-
EASTERN UPPER MICHIGAN

CITY           SKY/WX    TMP DP  RH WIND       PRES   REMARKS
KINROSS          N/A     57  28  33 SW9G18    29.79F
MACKINAC ISLAN SUNNY     57  31  38 CALM      29.80F
NEWBERRY       MOSUNNY   53  34  48 S13G18    29.77F
S. S. MARIE    MOSUNNY   54  37  52 SE9       29.79F
MUNISING         N/A     58  35  42 S8        29.72F
$$
MIZ004>006-011>014-085-031600-
CENTRAL UPPER MICHIGAN

CITY           SKY/WX    TMP DP  RH WIND       PRES   REMARKS
MANISTIQUE     SUNNY     48  40  74 S7        29.78F
ESCANABA       MOSUNNY   57  43  58 S9        29.77F
MENOMINEE      SUNNY     63  36  36 W8G17     29.80F
SAWYER-GWINN   SUNNY     55  34  44 W12       29.77F
$$
MIZ001>003-009>011-084-031600-
WESTERN UPPER MICHIGAN

CITY           SKY/WX    TMP DP  RH WIND       PRES   REMARKS
IRON MOUNTAIN  PTSUNNY   63  32  31 W14G24    29.76F
HOUGHTON       CLOUDY    58  30  34 W20G29    29.68F
COPPER HARBOR    N/A     58  34  40 NW10G18   29.65F
IRONWOOD         N/A     57  36  44 W16       29.73S
$$

ABBREVIATIONS USED IN REMARKS
   TC - TEMPERATURE IN CELSIUS
  WCI - WIND CHILL INDEX
   HX - HEAT INDEX
  VSB - VISIBILITY




USA.gov is the U.S. government's official web portal to all federal, state and local government web resources and services.